[[{"header":{"parameterUnit":"m.s-1","parameterCategory":1,"la1":30.2991,"la2":30.254,"lo1":-89.0895,"lo2":-89.0444,"dy":0.0017,"dx":0.0017,"nx":28,"ny":28,"refTime":"2023-11-05T09:00:00:Z","depth":0,"parameterNumber":2,"parameterNumberName":"U-component_of_WINDS"},"data":[0,0,0,0,0,0,0,0,0,0,0,0,0,0,0,0,0,0,0,0,0,0,0,0,0,0,0,0,0,0,0,0,0,0,0,0,0,0,0,0,0,0,0,0,0,0,0,0,0,0,0,0,0,0,0,0,0,0,0.3952,0.3952,0,0.3958,0.3958,0.3958,0.3967,0.3967,0.3967,0.3967,0.3973,0.3973,0.3974,0,0,0,0,0,0,0,0,0,0,0,0,0,0.3947,0.3947,0.3952,0.3952,0.3952,0.3958,0.3958,0.3958,0.3967,0.3967,0.3967,0.3967,0.3973,0.3973,0.3974,0,0,0,0,0,0,0,0,0,0,0,0,0,0.3951,0.3947,0.3952,0.3957,0.3957,0.3958,0.3958,0.3958,0.3967,0.3967,0.3967,0.3967,0.3973,0.3973,0.3974,0.397,0,0,0.3974,0.3974,0,0,0,0,0,0,0,0,0.3951,0.3951,0.3956,0.3956,0.3957,0.3962,0.3959,0.3962,0.3967,0.3963,0.3967,0.3967,0.3969,0.397,0.3971,0.397,0.397,0.3974,0.3974,0.3974,0.3974,0,0,0,0,0,0,0,0.395,0.3951,0.3954,0.3956,0.3957,0.3959,0.396,0.396,0.3965,0.3963,0.3964,0.3965,0.397,0.397,0.3971,0.397,0.3974,0.3974,0.3974,0.3974,0.3968,0.3968,0,0,0,0,0,0,0.3949,0.3951,0.3954,0.3954,0.3954,0.3959,0.396,0.396,0.3965,0.3966,0.3964,0.3965,0.397,0.3971,0.3971,0.3968,0.3974,0.3974,0.3974,0.3968,0.3968,0.3968,0,0,0,0,0,0,0.3949,0.395,0.3954,0.3953,0.3953,0.3959,0.3959,0.396,0.3961,0.3966,0.3967,0.3964,0.397,0.3971,0.397,0.3968,0.3974,0.3974,0.3969,0.3968,0.3968,0.396,0,0,0,0,0,0,0.3949,0.3949,0.3948,0.3953,0.3953,0.3953,0.3959,0.396,0.3961,0.3962,0.3966,0.3967,0.3971,0.397,0.397,0.3968,0.3974,0.3969,0.3969,0.3968,0.3961,0.396,0.3959,0,0,0,0,0,0.3949,0.3945,0.3948,0.3948,0.3951,0.3952,0.3953,0.3958,0.3961,0.3959,0.3963,0.3967,0.3968,0.397,0.397,0.3968,0.3969,0.3969,0.3968,0.3961,0.396,0.3959,0,0,0,0,0,0,0.394,0.3946,0.3949,0.3946,0.3949,0.3954,0.3952,0.3956,0.3958,0.3958,0.3964,0.3965,0.3964,0.3966,0.3968,0.3965,0.3969,0.3969,0.3964,0.3963,0.3962,0.3961,0.3974,0,0,0,0,0,0.3937,0.3938,0.3943,0.394,0.3942,0.3947,0.3947,0.3951,0.3954,0.3955,0.3958,0.396,0.3962,0.3962,0.3963,0.3961,0.3963,0.396,0.3959,0.3958,0.3958,0.3957,0.3957,0.3967,0.3967,0.3967,0,0,0.3933,0.3936,0.3936,0.3939,0.3941,0.3942,0.3947,0.3947,0.3948,0.3955,0.3954,0.3957,0.396,0.3959,0.3958,0.3961,0.3955,0.3958,0.3957,0.3957,0.3957,0.3956,0.3955,0.3966,0.3966,0.3966,0,0,0.3924,0.3927,0.3925,0.3928,0.3931,0.3935,0.3935,0.3939,0.3941,0.3941,0.3947,0.3947,0.3949,0.3951,0.3953,0.3946,0.395,0.3947,0.3942,0.3942,0.3941,0.394,0.3938,0.3938,0.3946,0.3946,0.3946,0,0.3918,0.3919,0.3924,0.3924,0.3925,0.3932,0.3931,0.3933,0.3937,0.3937,0.394,0.3943,0.3945,0.3945,0.3944,0.3945,0.3945,0.3946,0.394,0.394,0.3939,0.3938,0.3937,0.3946,0.3946,0.3946,0.3946,0,0.3911,0.3911,0.391,0.3914,0.3915,0.3915,0.392,0.3921,0.3924,0.3928,0.3928,0.3932,0.3934,0.3934,0.3937,0.3935,0.3936,0.3939,0.3944,0.3938,0.3937,0.3936,0.3945,0.3945,0.3946,0.3946,0,0,0.3896,0.3904,0.3903,0.3906,0.3911,0.3911,0.3911,0.3914,0.3915,0.3918,0.3918,0.392,0.3923,0.3925,0.3928,0.3928,0.3924,0.3932,0.3932,0.393,0.3922,0.3919,0.3919,0.3926,0.3926,0.3926,0.3922,0,0.3889,0.389,0.3895,0.3894,0.3895,0.3902,0.3902,0.3905,0.3908,0.391,0.3914,0.3915,0.3919,0.392,0.392,0.3924,0.3922,0.3925,0.3927,0.3927,0.3926,0.3918,0.3915,0.3911,0.3921,0.3921,0.3921,0,0.3881,0.3884,0.3883,0.3889,0.3889,0.3889,0.3893,0.3894,0.3898,0.3901,0.3903,0.3908,0.3908,0.3912,0.3914,0.3915,0.3917,0.3919,0.3919,0.392,0.3924,0.3919,0.3909,0.3909,0.392,0.392,0.392,0,0.3871,0.3874,0.3875,0.3876,0.3883,0.3883,0.3886,0.389,0.3892,0.3895,0.3896,0.3899,0.3901,0.3903,0.3909,0.3911,0.391,0.3914,0.3912,0.3912,0.3912,0.3912,0.3903,0.3912,0.3912,0.3912,0.3912,0,0.3863,0.3862,0.3871,0.3871,0.3871,0.3877,0.3876,0.388,0.3884,0.3885,0.3891,0.3892,0.3899,0.3901,0.3905,0.3906,0.3906,0.3909,0.391,0.3908,0.3908,0.3909,0.391,0.3912,0.3912,0.3912,0.3912,0,0.3851,0.3857,0.3858,0.3865,0.3866,0.3866,0.3872,0.3872,0.3877,0.3878,0.3879,0.3885,0.3888,0.3893,0.3897,0.39,0.39,0.3902,0.3899,0.39,0.3898,0.3898,0.389,0.3889,0.3899,0.3898,0.3898,0,0.3846,0.3846,0.3853,0.3854,0.3857,0.3859,0.3861,0.3867,0.3869,0.3874,0.3874,0.3877,0.388,0.3884,0.3889,0.3893,0.3895,0.3892,0.3895,0.3894,0.3895,0.3895,0.3896,0.3891,0.3891,0.3891,0.3891,0,0.3835,0.3838,0.3841,0.3845,0.3847,0.385,0.3854,0.3855,0.3862,0.3864,0.3867,0.3869,0.3874,0.3877,0.3881,0.3885,0.3889,0.389,0.3889,0.3888,0.3886,0.3888,0.3897,0.389,0.389,0.389,0.389,0.389,0.3827,0.3828,0.3833,0.3836,0.3839,0.3843,0.3844,0.3849,0.3851,0.3856,0.3859,0.3862,0.3867,0.3874,0.3876,0.3879,0.3881,0.3881,0.3881,0.388,0.388,0.3886,0.388,0.388,0.388,0.388,0.388,0,0.3817,0.3821,0.3824,0.3829,0.3832,0.3836,0.3841,0.3842,0.3845,0.3849,0.3852,0.3856,0.386,0.3865,0.3869,0.387,0.3872,0.3871,0.3871,0.3872,0.3878,0.3878,0.3869,0.3869,0.3869,0.3869,0.3869,0.3869,0.3813,0.3814,0.3818,0.3821,0.3825,0.3828,0.3831,0.3834,0.3838,0.3842,0.3845,0.3849,0.3854,0.3858,0.3862,0.3864,0.3865,0.3863,0.3865,0.387,0.3871,0.3872,0.3872,0.3863,0.3863,0.3859,0.3859,0.3859]},{"header":{"parameterUnit":"m.s-1","parameterCategory":1,"la1":30.2991,"la2":30.254,"lo1":-89.0895,"lo2":-89.0444,"dy":0.0017,"dx":0.0017,"nx":28,"ny":28,"refTime":"2023-11-05T09:00:00:Z","depth":0,"parameterNumber":3,"parameterNumberName":"V-component_of_WINDS"},"data":[0,0,0,0,0,0,0,0,0,0,0,0,0,0,0,0,0,0,0,0,0,0,0,0,0,0,0,0,0,0,0,0,0,0,0,0,0,0,0,0,0,0,0,0,0,0,0,0,0,0,0,0,0,0,0,0,0,0,2.6768,2.6767,0,2.6711,2.6711,2.671,2.6727,2.6728,2.6729,2.673,2.6665,2.6662,2.6659,0,0,0,0,0,0,0,0,0,0,0,0,0,2.6884,2.6882,2.6768,2.6767,2.6767,2.6711,2.6711,2.671,2.6726,2.6728,2.6729,2.6731,2.6666,2.6663,2.6659,0,0,0,0,0,0,0,0,0,0,0,0,0,2.6831,2.6881,2.6768,2.6768,2.6768,2.6712,2.6711,2.671,2.6726,2.6728,2.673,2.6731,2.6667,2.6663,2.6659,2.6597,0,0,2.6646,2.6644,0,0,0,0,0,0,0,0,2.6834,2.6827,2.6769,2.6768,2.6767,2.6728,2.6728,2.6671,2.6726,2.6742,2.673,2.6732,2.6684,2.6678,2.6664,2.6594,2.6591,2.6645,2.6643,2.6641,2.664,0,0,0,0,0,0,0,2.6837,2.6829,2.6745,2.6768,2.6767,2.6769,2.6764,2.6717,2.6703,2.674,2.6741,2.6735,2.6684,2.6668,2.6662,2.659,2.6645,2.6642,2.6639,2.6637,2.6466,2.6464,0,0,0,0,0,0,2.6843,2.6832,2.6747,2.6744,2.6806,2.6766,2.6759,2.6739,2.6704,2.67,2.6733,2.6736,2.6674,2.6667,2.666,2.6585,2.6641,2.6637,2.6634,2.6468,2.6465,2.6463,0,0,0,0,0,0,2.6845,2.6835,2.6749,2.6788,2.6777,2.6762,2.6738,2.6737,2.6721,2.6699,2.6696,2.672,2.6675,2.6666,2.6613,2.6583,2.6635,2.6631,2.647,2.6467,2.6464,2.6435,0,0,0,0,0,0,2.6848,2.6836,2.6813,2.6788,2.6775,2.6705,2.6737,2.6734,2.6714,2.6717,2.6685,2.6682,2.6676,2.6619,2.6609,2.6578,2.6628,2.6473,2.6469,2.6465,2.6439,2.6432,2.6425,0,0,0,0,0,2.6852,2.6806,2.6812,2.6802,2.6748,2.6703,2.6696,2.6692,2.6712,2.6688,2.6674,2.6683,2.6588,2.6613,2.6602,2.657,2.6475,2.647,2.6466,2.6442,2.6433,2.6426,0,0,0,0,0,0,2.6826,2.6802,2.6809,2.6753,2.673,2.6706,2.6676,2.6683,2.6652,2.6656,2.6651,2.6643,2.6589,2.6574,2.6602,2.6508,2.6534,2.6527,2.652,2.6511,2.6505,2.6509,2.6624,0,0,0,0,0,2.6814,2.6782,2.6762,2.6715,2.6703,2.6692,2.6672,2.6672,2.6647,2.6637,2.6619,2.6592,2.6557,2.6533,2.6499,2.6437,2.643,2.6409,2.6402,2.6397,2.6391,2.6357,2.6347,2.6448,2.6449,2.6449,0,0,2.6788,2.6771,2.6751,2.6709,2.6691,2.6657,2.6683,2.6645,2.6619,2.663,2.6579,2.6565,2.6535,2.6477,2.6451,2.6463,2.6361,2.6391,2.6387,2.6384,2.6351,2.6341,2.6333,2.6445,2.6446,2.6446,0,0,2.6723,2.6708,2.6667,2.6649,2.6623,2.6616,2.6606,2.6581,2.6573,2.6522,2.653,2.6497,2.6436,2.6415,2.6396,2.6324,2.6331,2.6313,2.6278,2.6245,2.6237,2.623,2.6204,2.6195,2.6307,2.6307,2.6307,0,2.6693,2.6644,2.6644,2.6606,2.6587,2.6598,2.6556,2.6537,2.65,2.6486,2.6501,2.6425,2.6406,2.6343,2.6326,2.631,2.6298,2.6316,2.6239,2.6231,2.6225,2.62,2.619,2.6305,2.6305,2.6305,2.6306,0,2.6608,2.6574,2.6543,2.6511,2.6488,2.6447,2.644,2.6417,2.6418,2.6409,2.6357,2.6335,2.6297,2.6282,2.6282,2.6219,2.6227,2.624,2.6266,2.6213,2.619,2.618,2.6302,2.6303,2.6303,2.6304,0,0,2.6524,2.6493,2.6482,2.6468,2.644,2.6412,2.6372,2.6337,2.6317,2.6291,2.6256,2.6205,2.6217,2.6196,2.6194,2.6164,2.6109,2.6181,2.618,2.6168,2.6038,2.6028,2.6018,2.6114,2.6112,2.611,2.6041,0,2.6457,2.6389,2.6389,2.6325,2.6293,2.6303,2.6268,2.6246,2.6236,2.6206,2.6194,2.6158,2.6177,2.6164,2.6136,2.6122,2.6083,2.6127,2.608,2.6078,2.6087,2.6005,2.5995,2.593,2.6031,2.603,2.6029,0,2.6369,2.6344,2.6278,2.6256,2.6242,2.6211,2.6179,2.615,2.6125,2.612,2.6097,2.61,2.6057,2.6085,2.6025,2.6055,2.6036,2.6026,2.6023,2.6018,2.605,2.5998,2.5909,2.5899,2.6014,2.6015,2.6016,0,2.6314,2.6263,2.6217,2.6204,2.6177,2.6155,2.6142,2.612,2.6099,2.607,2.6057,2.6023,2.6004,2.5977,2.5969,2.5991,2.591,2.5937,2.5903,2.5903,2.5885,2.5886,2.5792,2.5873,2.5873,2.5873,2.5873,0,2.6239,2.6198,2.6193,2.6164,2.6118,2.6117,2.6071,2.606,2.604,2.6008,2.6014,2.5984,2.5976,2.5944,2.5937,2.5889,2.588,2.5874,2.5872,2.5873,2.5874,2.586,2.5864,2.587,2.5871,2.5872,2.5872,0,2.617,2.6165,2.6115,2.6095,2.6089,2.6056,2.6037,2.6009,2.6001,2.5961,2.5951,2.5937,2.59,2.589,2.5844,2.584,2.5782,2.5785,2.5792,2.5792,2.5758,2.5761,2.5651,2.5637,2.5727,2.5727,2.5726,0,2.6122,2.6091,2.6069,2.6049,2.6036,2.6004,2.5984,2.5982,2.596,2.593,2.5905,2.5869,2.584,2.5779,2.5763,2.5728,2.573,2.5694,2.5725,2.5727,2.573,2.5732,2.5728,2.5688,2.5687,2.5686,2.5686,0,2.6038,2.6037,2.6009,2.5981,2.5957,2.5933,2.5911,2.5894,2.5888,2.5863,2.5826,2.5804,2.5759,2.5722,2.5687,2.5672,2.5677,2.5677,2.5667,2.5667,2.5672,2.5669,2.5776,2.5679,2.5679,2.568,2.568,2.5681,2.5978,2.5951,2.5932,2.59,2.5884,2.5863,2.5836,2.5825,2.5795,2.576,2.576,2.572,2.5695,2.5649,2.5632,2.5599,2.561,2.5596,2.5592,2.5589,2.5586,2.5678,2.5593,2.5593,2.5593,2.5593,2.5593,0,2.5894,2.5882,2.5854,2.5823,2.5798,2.5809,2.5784,2.5762,2.5728,2.5706,2.5678,2.5635,2.56,2.5583,2.5547,2.5524,2.5526,2.5515,2.5517,2.5513,2.5578,2.559,2.5515,2.5515,2.5515,2.5515,2.5515,2.5515,2.5847,2.5803,2.58,2.5748,2.5736,2.5698,2.5684,2.5664,2.5647,2.56,2.5572,2.5562,2.5541,2.5505,2.5473,2.5468,2.5455,2.5442,2.5439,2.55,2.5508,2.5516,2.5527,2.544,2.544,2.5377,2.5376,2.5376]}]]